{"data":{"norad_id":56836,"intl_designator":"2023-079P","name":"STARLINK-30142","alt_names":[],"object_type":"PAYLOAD","status":"ACTIVE","operator":null,"country":"US","launch_date":"2023-06-04","launch_site_code":"AFETR","launch_vehicle":null,"mission":null,"orbit_class":"UNKNOWN","rcs_meters":null,"size_class":null,"mass_kg":null,"dimensions":null,"purposes":["comms"],"wikipedia_slug":null,"has_3d_model":false,"image_url":null,"decayed_at":null,"tle_current":{"epoch":"2026-09-20T21:59:29.608224Z","epoch_age_seconds":82040,"freshness":"FRESH","line1":"1 56836U 23079P   26263.91631491  .00000681  00000+0  34284-4 0  9991","line2":"2 56836  43.0011  81.2754 0001295 270.2659  89.8044 15.27580948182782","mean_motion":15.27580948,"eccentricity":0.0001295,"inclination_deg":43.0011,"raan_deg":81.2754,"arg_perigee_deg":270.2659,"mean_anomaly_deg":89.8044,"bstar":3.4284e-5,"rev_number":18278,"period_min":94.26669021274,"perigee_km":482.15773415625,"apogee_km":483.93478061991,"semimajor_km":6861.1832573881,"source":"CELESTRAK","updated_at":"2026-09-21T09:00:33.517045Z"}}}